Location: Hoyos del Collado
(40.3594°N, 5.2003°W)
Time: 10:20:52
(UTC+00:00)

USA 229 - Pass Details

Date: 18 April 2024
Orbit: 890 x 1322 km, 63.4° (Epoch: 18 May)

Event Time Altitude Azimuth Distance (km) Brightness Sun altitude
Rises 21:39:31 0° 227° (SW) 3,521 6.5 -26.4°
Reaches altitude 10° 21:42:00 10° 232° (SW) 2,613 5.8 -26.8°
Maximum altitude 21:47:57 55° 310° (NW) 1,155 4.1 -27.6°
Drops below altitude 10° 21:54:29 10° 28° (NNE) 2,866 6.2 -28.4°
Sets 21:57:20 0° 33° (NNE) 3,891 6.8 -28.7°
